Zurück zum Katalog

STARLINK-32256

AktivKommunikationVLEO
NORAD 60362·PAYLOAD·🇺🇸 United States

Gestartet Aug 4, 2024 von Vandenberg Space Force Base

Loading…

Nächste Überflüge (nächste 24 Stunden)

TLE

AktuellSource: CelesTrak SupGP

Epoche: Sep 14, 2026, 21:42 UTC

1 60362C 24138H   26257.90465278 -.00072509  00000+0 -21415-2 0  2574
2 60362  53.1574 149.6624 0001198  93.7500 210.3234 15.34438038    14

Verfolge STARLINK-32256 in Echtzeit mit AllMySat

Download on the App Store